Wind_Speed
34 36 36 36 34 34 35 36 35 35 34 36 35 33 36 38 35 36 38 38 37 37 35 34 33 32 31 28 27 29 28 27 28 28 32 33 32 28 25 27 26 21 20 19 18 18 17 14 12 9 7 7 6 6 4 3 4 2 2 3 3 2 3 2 1 1 4 4 2 6 5 3 3 3 7 6 7 9 8 7 7 5 5 4 5 11 17 18
34 35 36 35 34 34 33 34 34 33 34 36 35 34 35 37 37 36 38 39 38 37 36 35 34 33 32 29 28 28 27 27 27 30 34 32 30 30 27 27 28 23 20 20 21 21 19 16 13 10 10 9 6 7 6 4 5 4 2 2 3 4 2 1 2 2 3 5 5 7 4 3 5 6 7 4 5 9 7 7 8 8 8 7 9 14 16 18
34 35 35 34 34 33 32 32 33 32 34 35 34 35 33 35 39 37 38 39 39 38 37 36 35 35 33 30 29 27 28 26 27 33 35 31 30 30 29 28 29 26 22 20 22 21 19 16 12 11 13 10 9 9 7 5 5 4 3 2 4 4 3 4 5 5 5 7 7 6 5 6 5 6 7 4 4 7 7 9 9 11 14 13 15 17 17 19
33 34 35 34 33 32 32 31 32 32 32 31 31 34 33 35 39 37 38 40 39 39 38 37 37 35 34 32 29 28 27 20 26 39 35 32 32 30 31 30 29 28 23 20 22 22 18 15 12 13 13 9 10 10 8 8 6 4 5 3 4 4 3 3 6 6 6 7 6 5 5 5 4 5 5 3 2 3 10 14 12 13 18 18 19 19 18 19
33 33 34 34 32 30 31 31 31 31 30 30 31 32 33 36 38 35 37 40 38 40 39 38 38 36 35 34 31 30 24 10 20 39 36 33 33 30 32 31 29 29 25 21 24 23 19 15 13 14 11 7 8 7 7 12 9 4 5 8 7 3 3 3 5 6 5 6 4 3 4 3 4 4 4 3 3 3 5 11 13 14 17 17 17 19 19 19
32 32 32 33 32 30 30 30 29 30 31 31 29 31 31 33 38 36 37 39 38 39 40 40 39 37 37 36 33 31 27 8 5 25 36 35 34 32 32 30 29 29 26 24 25 24 20 17 15 15 10 5 7 6 6 12 12 4 4 9 11 6 6 6 6 5 5 5 4 3 3 3 1 2 5 6 8 6 1 2 5 8 13 15 15 18 18 18
30 31 32 32 32 31 30 28 28 30 31 32 28 28 28 30 37 36 35 38 38 38 39 41 40 38 38 36 32 31 33 19 3 5 28 36 35 33 32 30 29 28 27 27 28 26 23 20 18 17 9 3 6 7 8 12 13 7 2 7 10 9 10 10 7 5 5 4 4 3 2 2 1 2 4 8 11 10 8 7 5 2 8 16 17 16 15 14
28 29 31 31 31 30 29 28 28 29 30 32 32 29 25 26 34 37 37 37 38 38 39 40 40 40 39 38 36 30 33 33 9 4 15 33 36 34 33 31 29 29 29 30 30 28 25 22 21 18 8 5 6 7 9 8 7 7 3 4 7 8 10 10 7 6 5 5 4 4 4 5 5 6 6 11 13 11 10 10 9 5 8 16 18 16 15 15
27 28 30 31 30 29 28 28 28 29 29 31 34 32 25 22 27 34 36 35 36 37 39 39 39 41 39 41 39 25 32 42 25 6 10 28 36 34 35 33 30 31 30 31 31 29 26 23 24 18 8 9 8 5 11 8 2 7 7 4 6 8 9 9 8 7 6 6 5 4 5 7 7 6 9 15 16 14 14 12 12 9 10 15 16 17 17 17
26 27 29 30 29 28 28 28 28 28 29 30 31 31 30 24 23 25 27 30 34 37 39 39 39 39 39 42 33 16 30 41 32 21 12 21 35 35 36 35 32 33 32 33 32 29 28 24 25 20 8 8 9 7 12 10 4 6 8 7 7 7 10 10 8 8 8 7 8 6 5 7 6 5 7 10 9 11 17 17 14 12 13 15 17 18 18 17
27 27 29 29 29 28 27 28 29 28 28 29 29 30 33 30 25 22 17 16 26 36 37 37 39 39 39 41 31 14 24 34 32 31 18 17 32 36 36 36 33 35 35 35 33 30 28 24 25 20 7 5 6 8 11 10 7 6 5 5 5 5 7 10 9 10 9 6 10 9 4 7 6 5 9 11 6 6 13 17 17 16 14 15 17 19 19 19
27 28 30 31 30 29 28 28 29 28 28 27 27 29 33 34 32 27 21 14 14 30 38 37 38 38 36 37 36 25 23 29 29 33 27 18 27 35 35 34 34 35 36 36 33 30 28 25 26 19 7 5 4 4 7 11 9 5 6 4 2 3 3 10 11 12 11 5 9 8 3 7 7 9 16 19 16 11 12 16 19 19 16 16 18 20 20 20
27 27 29 31 30 29 27 26 26 26 26 27 28 30 33 35 35 33 27 16 8 19 35 39 35 36 34 28 34 31 25 29 28 30 31 22 26 34 34 33 34 35 36 37 33 30 29 25 25 21 11 8 4 2 4 10 10 5 4 3 1 3 4 10 12 12 12 7 10 9 2 6 7 14 22 23 24 21 16 17 20 20 18 17 19 22 22 21
26 27 28 29 29 28 25 23 24 24 25 27 29 30 31 29 29 35 31 18 10 8 25 40 36 35 34 24 29 33 27 30 29 29 32 28 31 35 34 34 34 35 36 36 33 30 29 24 24 20 11 8 5 3 2 5 7 4 3 2 1 1 4 8 12 13 9 8 15 11 3 7 5 12 17 13 18 23 21 20 20 20 20 19 19 23 24 23
26 28 29 28 27 26 24 24 25 25 24 25 26 26 27 23 22 32 31 20 15 8 14 37 39 35 29 18 25 33 30 34 33 31 34 34 36 37 36 36 35 37 35 33 33 30 26 24 24 16 8 8 5 3 1 1 1 2 3 1 2 4 5 6 9 17 11 7 15 11 2 8 7 13 17 9 9 19 24 22 21 21 21 21 20 22 25 25
27 27 28 28 26 25 24 25 25 25 24 23 25 25 25 22 21 29 31 24 19 13 11 33 44 36 21 10 20 30 31 38 39 35 35 35 35 38 39 38 36 35 33 30 29 27 24 22 20 13 9 8 5 3 2 1 1 1 3 3 4 5 5 5 4 16 15 6 10 10 3 5 5 10 15 11 9 16 23 23 22 21 21 22 22 22 24 26
26 26 28 28 26 27 26 26 25 24 25 24 25 26 25 23 23 27 29 27 22 16 14 25 39 30 13 10 19 29 31 34 39 37 35 34 33 37 41 39 36 34 33 29 26 25 22 19 14 8 6 4 4 5 4 5 4 3 3 3 4 5 5 2 3 9 13 8 8 9 6 7 6 4 5 10 14 17 21 22 22 21 20 22 23 24 25 26
26 26 28 27 26 27 27 27 27 26 26 25 23 25 25 22 23 26 28 28 21 15 14 18 29 18 6 13 19 29 34 31 35 38 36 36 35 39 43 41 37 34 31 25 20 20 16 11 8 4 3 3 5 8 7 8 7 6 6 4 4 4 4 5 3 5 11 8 8 8 8 12 9 8 9 10 15 19 21 22 22 22 22 22 23 25 26 27
27 28 29 27 26 27 28 28 28 26 25 26 25 25 22 20 21 22 27 27 19 12 7 10 19 6 1 13 22 29 35 32 33 37 39 42 39 39 41 40 40 36 27 16 11 15 13 6 4 4 7 8 9 10 7 6 10 10 9 5 4 4 5 5 3 6 13 9 8 9 9 12 11 9 13 17 18 21 22 23 24 24 25 25 25 27 28 30
27 28 29 28 28 29 29 29 28 26 25 28 31 27 19 17 13 13 23 28 26 22 13 6 8 3 5 11 23 29 33 32 33 37 40 43 42 38 35 34 33 27 19 12 8 13 15 7 6 10 11 11 11 11 7 5 9 9 7 5 6 5 5 5 4 6 10 8 8 9 9 10 12 8 12 22 22 18 20 21 24 27 27 27 27 27 29 31
27 28 28 28 30 31 30 30 28 25 26 27 33 28 21 23 12 8 23 25 30 35 28 22 8 5 7 9 20 32 32 29 31 36 38 41 45 34 28 29 21 12 13 14 12 11 12 9 12 13 11 13 12 10 10 8 6 6 5 5 5 6 5 5 3 3 4 4 5 6 7 10 10 7 12 19 15 14 21 23 24 28 29 28 27 27 28 29
27 28 29 29 29 31 30 29 26 25 28 28 33 29 24 33 19 5 17 14 19 32 31 31 22 9 3 7 19 34 31 24 25 32 37 42 43 29 24 25 15 10 13 14 12 8 8 11 14 14 11 12 11 10 11 9 6 5 4 4 3 5 4 2 3 2 2 2 5 3 5 9 9 8 11 14 12 15 24 27 28 31 30 30 30 29 29 29
29 29 31 30 29 30 29 29 26 25 29 29 31 29 23 32 22 2 10 8 5 20 26 30 28 20 12 5 17 29 22 20 23 30 41 42 39 33 28 21 13 14 14 12 13 10 8 11 14 15 13 13 10 10 10 7 6 5 4 5 3 4 4 1 3 2 1 3 3 2 4 7 7 8 9 16 21 22 26 29 30 33 33 33 34 33 33 32
30 30 30 31 30 31 30 29 27 24 27 29 29 27 20 26 26 8 8 5 3 8 21 30 29 24 20 10 15 21 15 21 26 32 45 43 36 32 26 21 16 14 14 17 19 14 6 8 16 15 11 12 11 10 10 6 5 5 5 5 4 3 4 3 2 2 1 3 1 3 5 6 6 8 9 13 20 23 26 28 29 31 32 32 34 35 35 35
30 31 32 32 31 32 30 27 28 25 27 31 28 25 19 20 25 14 6 2 2 3 10 21 24 26 27 16 12 16 11 16 26 35 46 45 37 26 19 23 18 11 17 21 18 11 6 13 21 16 11 12 11 10 11 8 5 5 7 6 7 6 3 2 3 3 2 5 3 2 2 6 4 6 8 7 7 12 17 21 26 31 30 30 32 34 35 35
31 33 33 33 32 32 29 24 27 26 25 28 25 23 22 19 21 16 5 3 2 3 6 13 16 18 24 16 11 11 6 10 22 36 43 40 35 26 17 17 12 11 19 17 11 5 4 14 18 13 13 12 8 9 11 10 6 4 6 7 8 6 6 6 4 2 2 4 3 3 3 6 6 6 8 8 7 9 11 12 19 28 30 32 34 35 35 36
31 33 31 31 32 32 29 24 25 26 24 25 23 22 24 23 20 16 6 4 2 5 7 10 12 12 16 15 14 9 2 9 20 29 37 34 29 23 15 12 9 12 16 10 5 5 9 16 14 13 14 10 8 8 9 10 7 4 5 8 8 6 6 7 6 3 2 2 4 3 3 3 6 6 7 8 9 12 12 11 13 21 27 31 34 35 36 36
31 32 31 30 31 31 29 26 27 28 24 23 22 21 22 25 22 14 5 1 2 7 7 9 10 12 14 13 18 12 4 10 15 19 31 30 22 15 9 13 14 13 16 11 7 8 14 17 15 15 13 8 9 8 8 11 6 3 4 7 7 6 5 6 6 3 1 2 4 3 2 2 6 6 5 5 8 11 13 12 12 18 25 28 31 32 33 34
32 32 31 31 31 30 27 25 29 28 22 22 22 20 22 27 21 10 2 1 3 4 6 12 12 13 14 12 15 14 9 5 5 15 27 22 17 10 3 13 16 14 15 10 6 7 10 18 20 16 10 8 9 7 9 12 5 2 6 8 6 5 7 6 5 4 3 2 5 4 3 3 5 7 5 2 5 11 11 9 11 19 25 27 29 31 30 30
33 32 32 32 32 30 25 22 26 26 21 22 22 22 26 26 15 6 3 2 2 3 6 12 13 15 18 12 9 11 8 6 1 15 20 12 12 9 4 10 12 11 9 3 4 3 5 20 21 12 10 10 9 7 10 13 9 7 8 9 7 6 6 4 3 5 2 4 6 7 7 5 4 6 5 4 6 8 8 7 9 15 21 24 25 29 31 31
34 33 32 33 32 29 26 24 26 25 23 23 24 27 26 14 3 3 6 1 3 3 5 6 10 17 20 14 9 10 6 4 3 13 11 5 7 5 5 7 5 5 5 4 3 1 6 15 12 8 14 14 10 5 4 10 13 9 5 6 6 3 4 4 4 3 2 5 5 7 8 7 6 6 5 6 7 6 6 7 7 7 8 9 12 16 21 24
34 33 33 33 30 27 26 27 28 27 24 24 27 29 18 4 1 4 2 3 2 3 5 5 8 13 16 15 12 11 7 2 4 9 8 6 6 5 5 7 6 5 4 7 5 2 6 7 3 6 12 13 11 4 2 5 8 7 5 7 6 1 2 1 1 1 4 6 4 3 4 5 8 7 7 10 10 9 9 8 7 9 10 10 8 8 9 12
34 33 33 32 28 26 25 27 30 30 28 32 32 23 9 1 5 6 2 1 1 2 4 7 9 10 14 15 11 11 9 4 5 6 8 8 6 8 7 6 8 5 5 11 9 5 4 2 1 7 6 11 14 9 5 5 7 8 8 8 6 4 3 3 3 1 4 5 3 2 3 3 4 5 11 17 16 13 11 9 6 8 9 8 7 7 7 9
35 33 34 33 27 25 25 26 30 30 31 35 28 14 5 4 5 5 3 3 1 1 2 6 10 11 13 13 11 13 10 5 7 6 8 8 6 8 7 6 6 2 4 10 6 8 9 2 6 9 6 11 13 9 8 6 5 7 6 6 6 5 5 5 4 3 4 3 2 2 2 4 3 3 9 15 18 14 9 12 12 9 8 7 6 6 8 10
36 34 35 33 26 24 24 26 29 29 31 29 16 5 7 6 4 5 4 3 2 1 2 4 10 11 10 9 9 14 11 6 10 8 7 9 8 9 8 7 8 3 7 10 2 6 10 4 7 8 6 14 13 6 9 9 3 2 3 5 4 4 4 2 3 5 4 1 1 2 3 4 4 6 9 9 13 13 10 12 15 14 11 8 8 9 10 13
38 35 34 30 26 24 24 27 27 28 30 23 8 5 8 5 3 4 4 4 3 4 3 4 8 9 7 6 7 11 7 4 10 9 4 7 9 12 11 8 10 9 9 11 4 4 8 3 4 4 2 10 14 10 12 14 7 2 5 7 4 4 6 4 2 0 3 2 3 3 4 5 3 6 10 9 9 10 9 9 12 15 13 9 9 10 12 14
39 35 32 28 26 24 24 27 24 26 28 17 5 7 5 3 2 2 4 7 4 4 4 3 6 6 6 4 6 11 7 4 9 9 4 4 6 11 13 10 12 12 9 8 4 2 6 3 2 3 3 5 12 14 10 7 6 5 7 7 4 3 3 4 1 2 2 3 3 3 6 4 2 5 5 7 10 9 7 7 10 12 12 11 10 11 13 13
39 35 30 27 26 25 25 23 22 26 24 11 6 7 2 1 1 1 4 7 3 4 2 3 4 4 6 6 6 11 11 7 9 8 5 4 2 7 12 10 11 13 11 8 5 2 5 4 3 2 4 3 8 13 6 4 1 5 7 7 6 2 2 3 3 2 2 4 4 3 5 4 5 6 2 5 11 11 8 7 8 9 12 14 13 13 14 14
38 30 23 25 26 26 24 22 24 26 16 5 6 6 2 2 4 4 3 2 2 3 2 3 2 1 3 6 6 10 12 10 10 8 5 5 2 5 11 11 10 15 14 8 6 4 5 5 1 2 2 3 4 6 8 5 3 3 6 6 5 2 3 5 3 3 4 3 4 3 3 4 7 7 7 9 11 11 10 9 8 10 15 18 18 19 19 20
36 20 14 25 28 25 25 24 23 18 7 3 5 3 3 3 5 9 6 1 2 1 2 3 3 1 1 2 3 7 9 9 10 9 6 6 5 3 9 11 7 14 17 8 4 6 3 3 4 1 1 3 4 6 11 13 8 6 8 8 5 2 2 2 2 2 4 3 4 3 4 6 6 5 9 12 11 11 12 10 8 12 18 22 24 24 23 22
31 12 10 29 31 27 28 21 12 7 2 3 3 1 2 2 2 9 10 3 0 2 1 2 3 4 2 1 1 2 6 8 8 7 4 6 6 3 9 14 9 12 15 6 3 6 3 2 5 5 3 5 8 6 6 11 12 9 9 10 9 6 4 3 4 2 3 4 4 4 5 7 5 4 8 11 9 8 12 11 9 15 23 26 27 26 24 22
22 6 14 32 32 31 29 14 4 4 2 3 5 4 3 1 1 6 6 3 2 3 3 2 0 2 3 3 2 0 3 5 7 8 5 7 10 6 11 21 17 14 14 8 6 6 3 4 6 5 5 5 4 2 1 4 6 4 3 6 7 5 5 5 7 4 3 4 3 2 4 7 5 4 6 9 9 11 17 17 15 19 27 29 27 25 23 21
16 9 20 32 32 34 25 6 2 4 1 2 5 3 3 1 1 2 1 3 1 3 2 1 1 1 1 3 3 2 2 2 3 5 5 6 10 7 11 23 21 13 11 8 8 5 3 4 5 3 1 1 3 2 3 2 4 4 1 4 7 9 9 6 5 4 4 5 3 2 6 7 5 4 3 6 9 12 18 22 21 22 27 29 28 26 24 22
19 18 23 28 31 32 18 3 5 6 4 3 4 2 4 2 1 2 1 4 3 1 1 2 1 1 0 2 4 4 5 3 1 1 2 2 5 7 13 24 22 11 8 7 7 7 3 4 6 5 3 1 1 1 1 1 3 6 7 8 11 14 12 5 1 3 3 6 7 6 8 8 4 3 3 3 5 7 12 20 25 25 27 30 29 27 25 24
19 14 17 27 33 27 10 4 8 7 5 4 3 3 4 1 3 4 2 3 5 4 2 3 3 2 1 1 3 2 5 4 1 1 3 1 2 4 10 21 21 13 14 13 6 4 4 4 7 9 9 10 9 10 9 7 6 5 7 13 14 16 16 9 3 3 4 5 6 6 9 8 4 0 2 3 4 5 7 13 20 25 30 33 31 28 27 25
13 5 8 16 23 19 6 4 10 7 5 6 2 3 4 1 2 5 5 2 2 3 4 4 4 2 1 1 2 1 4 3 1 2 4 2 2 2 5 17 20 18 21 18 8 2 1 3 8 10 12 12 11 10 9 10 8 6 10 17 16 13 14 10 5 6 8 4 4 9 15 13 9 5 2 2 5 7 7 10 15 21 27 33 34 31 28 26
10 5 7 8 9 9 4 3 7 5 6 9 5 4 8 7 3 4 7 5 4 3 3 3 2 3 2 3 2 1 3 2 3 4 5 6 5 2 3 10 16 21 20 14 10 7 3 3 8 9 10 7 3 5 9 13 15 17 18 20 17 13 14 13 12 14 11 5 6 16 19 18 14 7 7 8 9 8 7 11 18 23 28 34 36 33 30 26
7 7 14 15 7 4 6 7 8 7 9 11 6 5 9 10 7 4 5 6 6 4 2 2 3 5 5 5 4 3 3 2 4 4 4 5 5 1 2 4 9 20 18 9 8 7 3 3 7 8 10 5 2 8 13 13 15 17 19 21 21 20 20 19 19 21 15 9 14 22 17 17 17 9 9 10 10 11 15 20 25 26 29 32 32 33 33 30
8 8 14 17 8 6 12 13 10 8 9 11 6 5 8 10 10 7 4 3 4 5 4 2 4 7 6 6 5 4 4 4 5 5 4 4 5 4 2 2 5 12 12 8 6 5 3 3 5 6 9 8 3 6 12 14 13 12 15 19 20 21 22 22 23 23 18 14 20 23 15 15 16 9 9 14 18 20 21 21 21 23 26 28 29 32 35 35
12 10 14 14 6 7 14 11 8 6 6 8 6 5 7 9 10 9 6 6 4 3 7 7 7 7 7 7 7 6 6 6 6 6 5 5 5 4 4 4 2 3 8 7 5 5 5 4 5 5 7 8 6 5 8 14 15 15 17 19 18 19 20 21 21 20 16 18 24 21 15 15 13 8 10 16 20 19 15 14 18 23 28 29 29 33 35 37
16 15 21 18 5 6 11 8 7 7 5 6 6 5 7 9 11 9 6 10 11 6 9 13 12 8 6 8 9 10 10 9 9 11 9 9 9 8 6 6 5 4 5 6 4 5 6 4 5 5 4 6 8 9 10 12 13 14 16 16 17 18 19 20 22 20 17 18 21 17 14 15 9 8 9 11 13 13 13 17 23 27 30 32 33 35 36 39
20 17 24 21 7 6 9 5 6 8 6 7 9 8 9 10 11 10 6 10 16 15 14 16 15 9 5 7 12 17 20 21 21 21 15 13 13 12 9 8 10 9 6 5 4 5 8 6 4 5 5 6 9 11 9 7 8 10 13 19 23 24 24 22 21 19 18 17 16 15 16 13 5 8 10 9 9 11 15 23 28 30 33 35 36 37 37 38
Wind_Direction
232 231 232 231 230 229 229 230 231 231 232 233 233 230 225 224 218 216 219 215 211 214 213 208 205 206 209 210 209 212 212 210 211 211 213 213 214 216 211 210 207 198 198 198 194 192 194 194 181 176 198 207 214 219 215 210 197 175 113 148 202 225 256 272 315 193 153 163 182 162 163 146 153 143 128 123 127 131 136 137 135 151 159 164 144 147 164 177
233 230 230 229 227 226 227 227 228 230 231 232 233 230 225 223 220 215 216 215 211 212 213 208 205 205 205 206 209 211 213 214 216 217 216 212 211 212 210 211 208 197 195 195 192 194 197 193 180 182 201 198 200 206 202 202 191 187 134 138 213 202 208 263 134 71 95 155 148 138 141 118 153 165 149 158 166 151 138 142 152 143 140 157 158 162 173 179
233 230 229 227 224 223 224 223 224 227 228 229 230 228 224 220 219 217 215 215 212 210 212 210 206 204 203 204 208 208 210 214 220 223 215 210 210 209 208 211 209 199 195 195 191 193 194 189 181 191 203 196 193 194 188 188 191 202 168 147 238 202 104 67 107 85 82 138 131 115 125 117 135 161 160 183 179 171 173 165 162 159 162 169 170 174 179 185
232 229 228 226 224 221 220 220 220 221 222 224 225 226 225 219 216 213 212 214 212 210 211 211 207 203 200 202 206 206 205 210 226 225 213 207 209 206 206 211 209 202 198 194 191 190 185 185 191 200 204 205 203 195 187 190 191 193 173 182 224 176 112 92 114 107 101 116 124 116 107 109 128 150 172 173 135 235 218 201 204 195 186 182 181 185 187 190
229 227 225 223 224 222 219 218 217 217 218 221 222 224 224 220 216 210 210 212 211 210 209 210 208 203 199 198 204 202 194 204 237 227 216 207 206 204 205 209 208 203 200 193 191 186 179 187 200 201 206 212 202 189 193 193 182 182 207 221 227 170 124 162 140 126 124 114 117 105 91 120 139 155 193 189 174 220 207 207 225 222 208 199 192 193 194 199
227 226 224 221 222 223 220 218 217 217 218 220 220 220 221 220 215 208 208 211 210 208 207 210 208 203 198 198 205 198 189 195 265 228 220 210 205 203 204 207 205 202 199 194 189 180 179 193 200 199 199 210 201 181 189 195 187 184 232 230 234 212 154 171 170 147 145 122 108 98 122 159 138 236 234 230 223 209 183 256 244 227 218 214 203 196 199 205
226 225 224 220 220 223 221 218 218 218 219 217 215 214 213 215 213 207 206 208 209 207 206 208 207 205 198 196 204 197 198 209 57 210 215 209 206 202 203 206 202 198 196 194 188 178 183 193 196 196 191 199 209 197 193 198 197 192 237 234 224 204 168 172 182 171 168 144 134 145 173 202 202 258 249 238 236 231 249 273 284 261 202 206 204 202 208 212
225 225 224 220 219 221 221 219 216 216 217 215 217 217 208 206 208 205 204 205 206 205 205 206 206 205 198 194 197 194 206 212 185 86 196 202 206 202 203 205 200 196 193 195 191 182 186 191 191 192 190 198 196 200 191 181 197 193 218 236 194 185 171 173 183 185 191 172 170 192 217 243 238 245 253 243 239 229 230 247 262 261 196 201 208 211 215 216
221 223 223 221 219 219 220 217 213 213 212 211 217 219 212 204 201 201 200 200 204 204 202 201 202 204 201 198 194 196 217 211 199 187 181 194 202 201 203 203 198 195 192 194 192 186 188 188 188 187 188 202 202 211 184 167 220 208 212 214 173 175 171 178 194 199 215 202 190 210 230 248 249 244 256 254 249 235 228 236 245 236 209 206 214 219 221 221
217 218 220 219 217 217 219 216 210 209 207 208 213 216 217 214 206 206 197 190 200 205 199 196 199 201 201 198 188 199 223 210 202 205 196 192 196 199 202 202 198 192 191 192 191 189 189 187 187 186 180 194 210 219 185 171 176 193 215 222 189 183 181 189 206 211 221 219 204 204 229 248 237 212 240 255 256 240 233 234 230 220 217 216 218 222 224 227
217 217 217 212 212 214 215 213 207 205 204 205 210 214 218 219 220 224 215 202 203 202 199 195 196 200 201 197 187 194 215 205 203 205 205 195 195 198 200 200 198 191 190 189 189 190 189 189 186 184 185 183 195 201 189 181 162 140 154 186 201 203 195 194 201 208 206 219 217 207 248 263 243 221 229 232 238 244 230 225 221 218 219 220 221 223 226 231
220 219 216 210 210 210 209 210 206 203 204 203 208 213 216 219 224 227 232 250 216 192 197 196 195 201 199 196 195 197 201 198 199 204 208 201 194 200 200 198 198 193 191 189 187 189 189 191 186 181 175 158 152 156 192 192 172 132 121 130 262 286 243 209 204 204 196 207 208 191 301 272 235 229 234 236 237 240 229 218 217 221 221 218 220 223 228 233
220 214 212 209 208 207 205 206 202 199 202 204 209 212 213 215 219 225 229 251 240 185 196 197 193 197 194 193 198 198 195 191 192 199 203 198 191 198 201 198 195 193 194 192 188 187 191 191 187 182 160 146 144 108 185 180 156 125 121 118 346 336 292 224 211 202 196 199 179 162 284 262 235 234 236 243 239 229 222 216 215 221 226 223 218 222 229 232
215 209 208 208 205 202 199 199 198 196 200 207 211 212 213 214 217 222 226 242 257 206 196 196 193 192 191 198 199 195 194 186 185 194 194 191 188 191 198 196 193 192 193 194 190 187 191 190 186 183 165 159 152 102 153 157 143 128 106 99 129 244 279 237 209 187 186 208 180 158 253 251 260 244 233 244 239 223 215 215 218 226 234 233 224 221 227 230
212 208 207 205 201 199 197 197 197 195 197 200 203 204 209 217 221 220 224 234 245 270 209 195 193 187 185 200 197 188 189 186 186 192 191 191 186 184 190 191 190 191 189 191 190 186 186 185 182 172 150 166 153 101 150 78 94 136 125 201 208 206 257 284 215 182 178 204 182 161 249 258 265 251 239 246 234 214 214 220 224 231 237 236 231 225 225 229
211 207 204 201 196 196 196 197 198 195 195 194 195 198 201 208 213 218 226 232 239 271 233 190 184 182 179 191 194 183 179 184 188 190 191 194 190 183 184 186 187 187 185 186 186 184 179 175 176 160 134 156 154 125 148 106 285 203 148 192 202 201 235 307 248 188 176 163 186 189 222 264 274 254 240 236 223 206 209 219 222 229 234 233 234 231 227 228
208 205 203 198 192 193 191 192 196 195 195 198 198 197 195 197 205 213 222 229 235 253 246 193 176 176 181 180 184 183 178 180 186 187 188 193 194 188 182 180 179 179 180 179 179 179 173 167 169 159 139 154 159 152 171 185 198 202 162 196 214 199 197 231 280 195 171 155 199 216 231 244 262 277 235 215 214 206 205 215 221 225 228 231 234 232 229 227
204 202 200 194 189 192 191 191 195 195 196 198 194 191 190 192 204 211 216 223 228 235 244 206 178 171 190 188 178 181 183 179 181 183 184 186 190 190 183 177 175 173 171 170 174 174 167 160 152 141 158 178 185 179 196 196 172 170 180 200 217 193 192 204 239 190 167 179 207 204 234 247 256 274 265 238 214 207 211 218 225 228 226 229 233 231 230 227
201 198 195 189 188 191 190 191 194 196 196 189 182 184 185 188 199 210 215 220 221 219 237 190 177 165 57 184 179 181 185 181 178 179 178 179 181 181 177 175 174 170 164 163 176 173 159 135 132 177 192 193 196 190 204 182 156 173 184 180 175 183 225 215 227 200 175 188 216 199 221 243 250 257 261 255 232 217 221 224 227 230 231 233 235 235 232 228
199 196 191 185 186 188 187 191 195 194 193 184 176 174 176 180 187 209 213 219 219 218 252 252 171 81 47 163 173 177 180 179 177 175 175 176 173 167 166 167 166 166 168 164 168 171 163 161 199 203 192 189 191 186 208 195 161 181 181 174 181 184 241 233 241 233 181 181 224 215 217 238 246 246 249 252 245 230 227 227 228 229 231 232 233 235 233 231
196 193 189 185 186 185 183 191 196 192 189 185 175 169 175 178 172 208 204 215 223 218 241 257 247 45 80 146 175 174 168 170 175 175 175 174 168 161 161 161 156 171 181 156 137 148 165 191 210 202 186 183 185 180 204 220 192 198 182 170 194 192 227 247 244 248 169 177 253 240 236 250 253 250 249 249 243 231 229 229 230 229 229 230 229 230 232 233
191 188 187 188 186 181 182 190 194 191 188 182 174 175 186 185 178 210 194 202 230 220 234 246 252 277 152 148 181 175 164 163 171 174 173 169 167 163 162 166 166 175 171 147 131 136 180 213 207 189 177 176 185 185 197 222 216 220 204 160 193 204 206 302 336 348 115 198 266 277 254 258 262 258 256 253 245 239 237 234 234 232 228 227 226 228 230 231
188 184 185 187 182 178 183 189 191 190 188 180 178 187 195 190 184 157 177 173 242 220 226 234 243 257 246 217 185 179 171 165 166 171 170 167 170 170 165 169 174 167 162 159 164 172 194 208 188 173 176 177 184 190 192 220 223 217 206 166 200 214 178 229 301 293 206 209 243 328 302 271 265 266 262 255 251 251 248 243 241 238 233 231 231 231 230 229
185 182 185 186 179 179 183 186 185 185 187 179 180 192 196 193 191 170 155 158 6 211 219 227 233 244 250 248 194 190 190 175 168 169 170 170 171 173 170 169 168 165 171 175 177 184 186 166 163 166 181 180 179 190 190 205 222 220 210 178 183 192 178 203 206 190 288 309 316 34 331 284 249 255 258 254 251 250 250 248 246 242 238 236 236 234 233 233
184 181 184 183 177 179 180 179 180 179 184 181 176 184 191 196 195 187 146 114 331 185 203 217 223 238 244 248 221 205 203 187 177 171 172 174 171 167 171 173 169 168 176 176 176 186 175 149 157 168 183 178 178 192 193 192 202 226 221 187 172 168 139 126 135 110 37 313 292 90 326 287 279 265 263 266 262 257 253 248 247 246 242 239 237 235 234 235
183 181 181 179 174 177 176 173 177 177 182 184 179 179 187 192 191 190 158 53 299 179 153 182 196 228 232 236 239 211 208 206 186 176 174 177 174 165 165 171 171 173 171 171 174 181 167 156 157 167 178 178 186 196 194 184 178 222 221 178 167 152 110 105 124 133 188 257 285 100 169 269 307 288 268 277 283 276 267 253 245 246 245 241 239 238 237 237
181 178 175 176 175 175 174 172 175 176 178 182 179 173 177 184 185 180 148 30 284 158 140 165 173 199 207 217 222 203 193 186 184 185 179 177 175 165 163 169 165 172 164 157 183 172 156 161 159 164 171 177 194 199 195 177 167 227 212 167 173 178 143 130 119 132 200 252 323 19 133 256 293 268 260 275 281 280 274 266 253 245 243 243 242 240 240 239
176 172 172 174 175 177 178 176 176 179 181 180 174 163 164 176 177 164 131 41 181 138 143 168 174 186 185 197 206 215 270 174 174 195 186 179 175 157 161 179 167 164 164 165 184 161 154 167 169 164 165 181 196 200 190 175 175 242 192 152 171 175 141 118 102 103 37 29 299 300 127 219 277 269 278 288 277 272 263 257 256 249 244 243 242 241 240 239
171 170 171 172 174 178 180 180 179 181 183 179 172 157 153 163 161 141 126 220 126 105 152 166 170 173 158 154 184 209 254 224 172 193 188 184 177 157 151 183 167 154 169 183 173 141 157 174 170 160 166 187 193 194 180 180 197 185 118 94 92 91 88 90 94 96 41 345 240 226 165 213 275 278 281 287 257 257 256 253 249 250 249 244 240 238 237 237
170 170 170 171 174 176 177 179 181 182 181 176 172 159 150 153 146 122 193 220 95 107 145 157 163 157 148 145 170 194 227 287 289 174 181 183 171 160 135 165 160 149 164 168 129 109 140 164 165 166 183 179 169 180 180 178 168 122 100 84 73 54 60 63 58 80 59 286 238 202 188 197 264 276 251 218 230 239 242 253 250 249 253 251 245 240 238 236
168 168 168 170 172 173 173 174 178 184 180 171 168 160 151 143 122 159 181 127 47 147 144 147 160 154 156 169 183 186 200 288 216 167 169 161 158 155 128 143 128 115 131 102 118 50 115 153 167 174 180 166 149 171 175 162 150 118 101 108 95 34 29 30 20 67 182 255 250 214 190 186 226 255 247 237 246 238 226 233 234 225 222 227 234 235 235 235
163 165 166 168 169 171 174 172 176 181 179 175 169 158 147 116 249 204 175 55 46 183 167 152 168 167 168 178 185 181 176 245 217 183 174 162 162 173 168 167 148 128 152 153 160 166 136 163 186 147 169 165 149 144 62 143 152 122 126 133 118 83 47 43 259 147 225 240 250 217 177 200 233 241 255 267 264 246 242 230 191 170 155 145 155 179 202 217
159 162 164 166 168 171 173 171 173 178 178 175 166 153 137 141 201 204 199 150 149 195 173 160 171 171 163 173 184 173 169 191 201 199 191 175 175 187 194 199 171 150 163 161 154 150 145 303 197 142 173 175 163 164 160 172 172 153 152 155 152 142 137 196 217 242 253 246 251 201 179 236 268 245 236 247 251 242 250 258 219 178 171 159 158 175 194 211
158 161 163 166 168 170 170 168 172 180 180 169 156 145 163 193 192 184 181 229 261 61 200 170 164 163 164 179 182 162 165 192 185 195 200 184 185 193 201 218 197 125 116 152 157 162 160 200 186 172 181 177 174 176 161 140 148 163 149 142 155 159 167 191 190 197 229 246 268 240 200 199 205 252 234 239 255 258 255 257 248 224 202 192 195 209 221 229
158 162 163 165 167 167 167 168 172 183 179 161 143 146 180 190 203 177 175 233 237 144 256 196 164 161 172 184 177 169 175 184 180 192 203 189 194 196 194 203 204 179 139 157 181 171 167 186 193 177 162 171 174 155 130 120 121 213 120 130 186 183 150 149 180 180 162 150 245 213 229 215 201 278 282 263 271 273 257 243 229 212 203 204 214 217 221 229
158 160 162 163 166 167 168 169 174 182 174 156 137 185 188 204 205 169 174 197 193 152 150 189 174 166 174 178 171 178 178 152 169 185 208 200 202 197 192 195 197 194 172 164 155 170 173 185 192 156 104 178 174 154 154 156 156 180 158 169 195 155 116 109 210 123 96 179 239 193 242 292 318 286 273 252 258 265 255 240 213 198 193 200 210 209 215 224
157 157 158 159 164 169 171 172 175 179 171 158 162 187 191 233 194 120 172 185 176 140 138 186 184 170 168 165 174 177 164 135 167 178 192 194 208 201 193 197 196 198 200 174 156 197 165 127 254 166 113 183 161 144 158 170 136 135 177 181 142 85 79 107 145 4 64 230 262 210 228 271 296 271 266 235 238 250 249 231 216 206 196 194 200 206 212 211
155 154 153 154 163 169 170 172 173 169 165 162 190 186 169 262 236 44 186 192 162 104 118 203 189 185 175 166 180 174 164 165 172 175 179 167 233 218 193 192 196 202 215 186 158 204 153 111 315 229 143 148 138 134 154 274 295 146 163 168 144 140 214 157 162 182 175 233 269 266 249 228 219 236 239 211 220 231 238 220 214 213 196 189 191 193 190 176
152 149 149 155 164 167 166 169 165 158 155 165 194 194 195 221 245 262 234 214 161 122 158 188 156 278 192 167 173 171 171 178 169 170 187 167 192 231 198 195 194 198 211 197 156 184 166 135 210 260 151 131 132 155 180 218 314 79 136 165 164 150 180 175 173 158 159 218 256 296 301 239 225 214 201 212 212 211 215 208 208 204 188 186 187 181 172 163
151 142 149 162 165 164 162 162 158 152 152 198 187 191 205 198 243 254 255 337 63 122 189 180 156 191 239 175 180 172 177 183 172 177 194 167 162 222 208 204 194 192 205 213 166 168 158 143 159 149 54 138 178 202 188 184 182 155 166 183 181 156 136 165 181 137 130 165 216 259 271 255 247 204 198 214 212 204 202 196 203 196 183 184 184 175 169 166
148 132 156 166 168 166 158 151 149 148 156 205 182 159 205 179 228 249 250 234 60 357 54 140 165 173 171 166 252 197 175 180 176 178 185 172 177 214 208 200 189 184 195 213 208 180 162 153 156 150 170 187 194 203 193 192 189 179 182 184 180 173 130 149 214 203 151 174 175 196 252 265 250 205 207 215 211 205 199 190 190 189 184 185 183 175 171 168
142 121 168 168 170 169 159 143 147 163 143 195 184 166 197 201 164 243 249 183 191 340 26 40 135 169 166 155 176 269 154 174 177 178 191 198 200 206 193 191 191 187 186 193 207 195 121 115 140 152 186 196 199 196 75 183 176 156 188 176 169 172 140 164 211 207 193 212 148 127 269 275 256 226 221 217 210 204 198 189 184 188 187 185 182 177 174 170
128 118 162 170 173 170 160 131 138 165 200 192 165 164 208 232 70 267 320 90 78 349 14 331 358 145 160 128 152 164 151 176 175 180 196 201 210 216 186 186 189 187 187 190 195 184 75 109 141 115 80 2 348 344 28 64 127 123 202 170 163 192 191 182 198 175 180 210 181 186 261 267 273 278 237 208 202 197 196 191 186 188 188 186 183 179 178 176
117 122 153 171 177 170 163 154 163 182 217 158 121 162 209 225 226 225 131 131 163 101 78 277 290 195 245 116 146 177 185 196 8 206 210 190 213 212 189 188 188 179 192 198 185 183 175 158 149 129 131 110 339 267 44 10 188 182 199 192 185 197 195 179 118 126 194 216 181 189 243 250 261 321 44 118 155 169 190 193 187 185 187 187 185 182 181 181
119 122 153 171 177 175 176 187 169 178 185 142 112 170 176 238 243 222 216 174 183 168 164 239 226 209 286 101 122 168 199 211 345 202 215 324 276 210 188 190 188 183 200 207 202 195 200 186 163 160 173 179 188 198 188 184 192 183 187 192 196 197 191 190 185 164 223 225 165 186 244 248 227 229 39 74 129 155 189 196 190 188 189 188 186 185 186 187
131 124 151 167 177 184 205 184 166 167 159 148 151 172 163 192 244 227 237 260 263 188 184 237 223 184 293 19 92 167 215 235 300 200 198 203 238 272 192 189 191 196 201 202 200 157 46 242 201 188 194 194 195 198 175 154 152 156 179 191 197 194 186 187 190 202 215 196 160 218 237 239 227 199 184 186 172 180 194 197 195 194 192 191 191 191 189 189
136 143 161 160 168 185 212 179 165 158 155 165 170 162 178 194 204 213 214 222 268 237 204 255 205 151 197 197 162 229 205 221 261 213 195 192 193 276 235 193 196 204 201 190 179 154 77 274 229 222 224 216 162 151 149 153 171 181 184 188 190 181 179 189 206 217 205 154 218 233 228 237 241 200 181 209 198 194 205 198 195 193 193 196 197 196 195 193
145 160 173 171 152 162 192 189 181 166 162 173 176 155 177 194 191 180 197 216 239 224 182 266 219 188 199 184 176 226 189 184 242 209 181 190 171 144 263 229 210 208 198 175 171 161 109 223 222 236 248 265 68 149 163 171 188 193 187 187 189 184 184 193 209 218 202 176 231 237 222 233 243 211 190 211 199 199 208 201 197 194 194 198 200 200 202 202
144 137 166 174 158 165 181 177 170 166 169 177 178 165 177 191 192 186 178 187 229 219 180 200 228 211 209 192 181 209 189 181 230 218 170 181 177 154 185 251 241 213 190 173 184 163 124 197 197 211 241 258 264 180 174 178 191 201 196 195 194 190 192 198 209 217 209 203 234 241 233 239 239 209 198 211 209 212 212 204 200 199 200 202 203 206 209 209
153 142 162 165 142 158 167 157 152 169 189 188 191 194 185 189 193 193 186 164 164 204 192 204 231 217 207 205 196 212 211 196 226 225 166 152 183 184 186 202 217 190 183 190 194 169 176 192 154 167 228 240 236 234 202 186 188 196 199 200 197 195 200 208 215 217 209 216 234 240 247 254 240 194 199 214 211 212 213 208 207 207 208 210 211 213 214 214
160 160 164 159 128 151 155 143 155 174 192 192 194 197 193 202 198 188 197 194 187 185 184 199 220 221 205 207 210 225 226 213 234 239 200 180 196 195 195 195 153 137 191 201 175 167 193 194 132 148 228 224 203 216 216 199 197 201 201 197 194 198 204 209 216 215 202 213 231 234 242 253 234 173 192 215 209 205 206 207 211 212 213 215 216 217 218 219
157 157 166 164 147 143 154 149 167 180 196 199 200 197 193 205 197 180 194 209 204 209 203 198 207 213 201 199 211 227 231 226 234 242 236 228 221 208 208 201 167 158 180 194 190 181 180 185 157 155 206 227 200 195 199 196 201 208 202 194 194 201 207 208 216 218 205 207 219 222 228 234 192 155 187 204 205 209 210 209 212 214 215 218 220 221 222 223
Height
1449 1450 1452 1454 1456 1458 1460 1462 1465 1467 1470 1472 1474 1476 1478 1481 1484 1487 1489 1492 1494 1497 1500 1501 1502 1506 1510 1514 1517 1519 1521 1521 1521 1521 1520 1523 1527 1530 1533 1535 1538 1540 1541 1543 1546 1548 1548 1549 1550 1551 1552 1552 1553 1553 1554 1554 1554 1555 1556 1560 1563 1563 1562 1557 1555 1555 1554 1554 1554 1553 1554 1555 1555 1556 1556 1557 1558 1559 1560 1560 1561 1561 1562 1562 1563 1563 1564 1566
1446 1447 1449 1451 1453 1455 1457 1459 1462 1464 1466 1469 1471 1473 1475 1478 1481 1484 1487 1489 1492 1495 1498 1499 1500 1503 1508 1512 1515 1518 1519 1519 1519 1517 1517 1523 1526 1528 1531 1533 1536 1538 1540 1542 1544 1546 1547 1548 1549 1550 1551 1552 1552 1553 1553 1554 1554 1554 1556 1559 1560 1558 1557 1554 1553 1553 1553 1553 1553 1553 1554 1554 1555 1555 1556 1557 1558 1559 1559 1560 1561 1561 1562 1562 1563 1563 1564 1565
1443 1444 1446 1448 1450 1452 1454 1456 1458 1461 1463 1466 1468 1470 1472 1476 1479 1482 1485 1487 1489 1492 1496 1498 1498 1500 1505 1510 1514 1516 1517 1519 1516 1512 1516 1522 1524 1526 1530 1531 1534 1537 1538 1540 1543 1545 1546 1548 1549 1550 1551 1551 1551 1552 1552 1553 1553 1553 1555 1558 1557 1554 1554 1554 1553 1553 1553 1553 1552 1553 1553 1554 1555 1555 1556 1556 1558 1558 1558 1559 1560 1560 1560 1561 1562 1562 1563 1564
1440 1441 1443 1445 1447 1449 1451 1453 1455 1457 1460 1462 1465 1467 1470 1473 1476 1479 1482 1484 1487 1490 1493 1496 1496 1498 1503 1507 1512 1514 1516 1517 1509 1507 1515 1519 1521 1525 1527 1529 1532 1536 1538 1540 1542 1543 1546 1547 1549 1549 1550 1551 1551 1551 1551 1552 1552 1552 1554 1555 1554 1552 1553 1554 1553 1553 1553 1553 1553 1553 1553 1554 1554 1555 1555 1556 1558 1558 1556 1556 1556 1556 1557 1559 1560 1561 1562 1562
1437 1439 1440 1442 1445 1446 1448 1450 1452 1454 1457 1460 1462 1464 1467 1470 1473 1476 1479 1481 1484 1487 1490 1493 1495 1497 1500 1504 1510 1511 1516 1517 1503 1504 1515 1516 1519 1523 1524 1528 1530 1534 1537 1539 1540 1542 1544 1546 1547 1548 1549 1549 1550 1551 1550 1550 1551 1552 1552 1551 1551 1551 1553 1553 1553 1553 1553 1553 1553 1553 1553 1554 1554 1555 1555 1555 1557 1556 1555 1554 1554 1555 1555 1557 1558 1559 1560 1561
1434 1436 1438 1440 1442 1444 1446 1448 1449 1452 1455 1457 1460 1462 1464 1467 1470 1473 1476 1479 1482 1484 1487 1490 1493 1496 1498 1501 1506 1508 1511 1509 1499 1502 1511 1513 1517 1520 1522 1526 1528 1532 1535 1537 1539 1540 1543 1544 1546 1546 1547 1548 1549 1549 1549 1549 1550 1551 1551 1550 1550 1550 1551 1552 1552 1553 1553 1553 1553 1553 1553 1554 1554 1554 1554 1554 1555 1554 1554 1554 1554 1554 1554 1555 1556 1557 1558 1559
1431 1433 1436 1437 1439 1442 1443 1445 1447 1449 1452 1455 1458 1460 1462 1464 1467 1471 1473 1476 1479 1481 1484 1487 1491 1494 1496 1499 1503 1505 1503 1500 1498 1501 1505 1510 1515 1518 1521 1524 1527 1530 1533 1536 1537 1538 1540 1542 1544 1544 1546 1547 1547 1547 1548 1548 1549 1550 1551 1549 1549 1549 1550 1551 1551 1552 1552 1552 1552 1552 1553 1553 1554 1554 1554 1553 1553 1553 1553 1553 1553 1553 1554 1554 1555 1555 1556 1557
1429 1431 1434 1436 1437 1439 1441 1443 1445 1447 1450 1453 1455 1458 1460 1461 1465 1469 1470 1473 1476 1478 1481 1484 1489 1491 1493 1493 1497 1501 1497 1496 1500 1501 1503 1508 1512 1516 1519 1521 1525 1528 1531 1534 1535 1536 1538 1539 1541 1543 1545 1545 1545 1546 1546 1548 1549 1549 1549 1548 1548 1549 1549 1550 1551 1551 1552 1552 1552 1552 1552 1553 1553 1554 1552 1551 1551 1552 1552 1552 1552 1552 1553 1553 1553 1554 1554 1555
1426 1429 1431 1434 1435 1437 1439 1441 1443 1445 1448 1450 1453 1455 1457 1459 1462 1465 1467 1469 1472 1475 1478 1481 1486 1489 1490 1489 1493 1495 1490 1493 1501 1502 1503 1506 1510 1514 1516 1519 1522 1526 1529 1532 1534 1535 1536 1537 1539 1541 1543 1544 1544 1545 1545 1548 1549 1547 1547 1548 1548 1548 1549 1550 1550 1550 1551 1551 1551 1552 1552 1552 1552 1553 1551 1549 1550 1551 1551 1551 1551 1551 1551 1551 1552 1552 1553 1553
1423 1426 1429 1431 1433 1434 1437 1438 1441 1444 1446 1448 1451 1453 1455 1457 1460 1461 1463 1467 1470 1472 1476 1479 1482 1486 1487 1486 1490 1491 1487 1494 1501 1501 1504 1505 1508 1512 1514 1517 1520 1523 1527 1530 1532 1534 1534 1535 1538 1540 1542 1542 1543 1544 1544 1546 1547 1546 1546 1547 1548 1548 1548 1549 1549 1550 1550 1551 1551 1551 1551 1551 1551 1552 1549 1547 1547 1548 1549 1549 1549 1549 1549 1549 1550 1550 1551 1552
1421 1424 1427 1429 1430 1432 1434 1437 1439 1442 1444 1446 1448 1451 1453 1456 1459 1460 1461 1465 1467 1470 1474 1476 1479 1482 1484 1483 1485 1486 1488 1495 1498 1500 1504 1505 1507 1509 1511 1515 1518 1521 1524 1527 1530 1531 1533 1534 1536 1539 1541 1541 1542 1543 1543 1543 1544 1545 1546 1547 1548 1548 1548 1548 1548 1549 1550 1550 1550 1550 1550 1550 1551 1549 1546 1546 1547 1546 1546 1547 1548 1548 1548 1548 1548 1549 1549 1549
1420 1423 1426 1427 1428 1430 1432 1434 1437 1440 1442 1444 1447 1450 1452 1455 1458 1459 1461 1464 1464 1466 1470 1473 1476 1480 1483 1483 1480 1483 1488 1493 1496 1500 1503 1505 1507 1509 1511 1515 1518 1520 1522 1525 1527 1529 1531 1533 1535 1538 1539 1540 1542 1543 1543 1543 1544 1545 1545 1548 1549 1548 1548 1547 1547 1548 1549 1549 1548 1550 1552 1550 1547 1545 1542 1544 1545 1545 1545 1545 1546 1546 1546 1546 1546 1547 1547 1547
1419 1422 1424 1426 1427 1428 1431 1433 1435 1438 1441 1443 1445 1447 1449 1452 1456 1457 1459 1463 1461 1462 1467 1470 1473 1477 1481 1480 1478 1482 1487 1490 1495 1498 1501 1504 1506 1508 1512 1515 1517 1521 1523 1524 1526 1528 1530 1531 1534 1537 1538 1539 1541 1543 1542 1542 1544 1545 1546 1548 1551 1552 1549 1545 1545 1547 1547 1548 1547 1550 1556 1549 1542 1540 1539 1540 1542 1543 1544 1543 1544 1544 1544 1545 1545 1545 1545 1546
1417 1420 1422 1424 1425 1427 1429 1432 1435 1437 1439 1442 1444 1446 1449 1451 1454 1455 1457 1460 1460 1462 1465 1467 1471 1475 1479 1478 1477 1481 1484 1489 1493 1495 1498 1500 1502 1507 1511 1513 1517 1520 1522 1524 1525 1527 1529 1532 1535 1537 1538 1539 1539 1541 1542 1543 1544 1545 1548 1549 1552 1557 1551 1542 1542 1545 1546 1548 1545 1550 1556 1548 1539 1537 1536 1537 1538 1540 1541 1541 1542 1542 1542 1543 1543 1543 1543 1543
1415 1417 1419 1421 1423 1425 1428 1430 1433 1435 1437 1440 1443 1446 1448 1450 1453 1455 1456 1458 1459 1462 1464 1465 1468 1471 1475 1476 1476 1479 1482 1486 1488 1491 1494 1496 1499 1503 1507 1511 1515 1518 1521 1523 1524 1526 1529 1531 1535 1536 1538 1539 1540 1543 1544 1545 1545 1545 1551 1555 1554 1556 1551 1541 1540 1541 1543 1546 1545 1549 1554 1547 1538 1535 1534 1536 1536 1537 1538 1539 1540 1540 1540 1541 1541 1541 1541 1541
1412 1415 1418 1420 1421 1424 1426 1429 1432 1434 1436 1439 1442 1444 1447 1449 1451 1455 1457 1458 1460 1462 1464 1463 1462 1467 1471 1472 1473 1476 1478 1480 1484 1489 1492 1493 1496 1500 1505 1510 1514 1517 1520 1522 1524 1526 1529 1532 1534 1535 1537 1539 1541 1545 1548 1550 1549 1546 1549 1556 1555 1554 1553 1546 1540 1539 1540 1543 1545 1546 1547 1543 1536 1532 1532 1534 1534 1535 1536 1536 1537 1538 1538 1538 1538 1539 1539 1540
1411 1413 1416 1418 1420 1422 1424 1427 1431 1433 1436 1438 1441 1444 1446 1448 1451 1454 1457 1459 1462 1464 1464 1461 1460 1465 1467 1467 1468 1471 1474 1478 1482 1486 1489 1492 1496 1498 1502 1507 1511 1515 1517 1521 1524 1526 1529 1531 1533 1535 1536 1538 1540 1545 1551 1554 1553 1550 1549 1552 1551 1549 1552 1550 1542 1539 1540 1542 1544 1544 1543 1539 1534 1531 1531 1532 1533 1533 1533 1534 1534 1535 1535 1535 1535 1536 1536 1537
1409 1411 1414 1416 1418 1420 1423 1426 1429 1432 1435 1437 1440 1443 1445 1448 1451 1454 1456 1459 1461 1464 1463 1460 1459 1463 1464 1462 1464 1467 1470 1476 1480 1483 1486 1490 1495 1496 1499 1503 1508 1512 1516 1520 1522 1525 1528 1530 1532 1535 1537 1538 1538 1541 1545 1545 1545 1547 1547 1548 1549 1546 1548 1548 1542 1538 1539 1541 1542 1544 1544 1538 1534 1533 1532 1532 1532 1531 1530 1531 1531 1532 1532 1533 1533 1533 1533 1534
1407 1409 1412 1414 1416 1419 1422 1424 1428 1431 1434 1436 1439 1442 1445 1448 1450 1453 1455 1458 1460 1461 1459 1455 1454 1457 1457 1456 1460 1465 1469 1474 1478 1481 1483 1486 1491 1497 1499 1502 1505 1509 1514 1518 1522 1523 1525 1529 1533 1535 1534 1535 1534 1535 1536 1534 1535 1540 1541 1543 1545 1545 1544 1542 1538 1535 1536 1540 1541 1542 1542 1537 1534 1533 1531 1531 1530 1529 1529 1528 1529 1529 1529 1529 1530 1530 1530 1530
1405 1408 1410 1412 1415 1418 1421 1424 1426 1430 1433 1434 1436 1441 1445 1447 1451 1452 1452 1454 1456 1457 1455 1452 1452 1452 1453 1455 1459 1463 1468 1473 1477 1478 1479 1482 1487 1494 1499 1502 1506 1510 1510 1513 1520 1521 1523 1529 1531 1528 1527 1529 1530 1531 1532 1530 1533 1536 1537 1539 1540 1541 1541 1537 1535 1534 1533 1538 1539 1537 1538 1536 1532 1531 1529 1529 1529 1528 1527 1526 1525 1525 1525 1525 1526 1526 1527 1527
1404 1407 1408 1410 1413 1416 1420 1423 1426 1429 1432 1433 1435 1438 1440 1442 1446 1446 1446 1450 1453 1455 1454 1451 1453 1453 1454 1457 1459 1461 1465 1471 1476 1477 1478 1480 1484 1490 1498 1500 1504 1509 1509 1510 1517 1521 1524 1527 1523 1520 1522 1525 1527 1528 1529 1530 1532 1535 1535 1536 1538 1540 1539 1535 1534 1534 1534 1538 1538 1536 1538 1535 1531 1530 1527 1526 1526 1525 1524 1523 1522 1522 1522 1522 1522 1523 1523 1523
1402 1405 1406 1409 1412 1415 1419 1422 1425 1428 1431 1432 1434 1435 1436 1437 1440 1440 1443 1449 1451 1453 1455 1452 1452 1454 1455 1458 1460 1461 1462 1466 1472 1475 1476 1479 1482 1486 1492 1496 1499 1503 1506 1510 1516 1522 1525 1520 1514 1517 1521 1523 1525 1525 1528 1530 1532 1534 1533 1535 1538 1538 1537 1536 1535 1534 1535 1538 1537 1536 1537 1534 1529 1528 1525 1524 1523 1522 1520 1519 1518 1518 1518 1519 1519 1519 1520 1521
1401 1403 1405 1408 1411 1415 1418 1421 1424 1427 1429 1431 1433 1434 1435 1437 1439 1440 1443 1448 1449 1450 1453 1452 1452 1454 1457 1459 1460 1460 1459 1460 1465 1469 1473 1476 1480 1482 1485 1490 1494 1499 1504 1506 1510 1516 1517 1511 1510 1516 1519 1521 1524 1524 1527 1530 1531 1531 1532 1535 1537 1534 1536 1539 1538 1536 1536 1537 1537 1537 1536 1532 1528 1525 1522 1520 1519 1517 1516 1515 1514 1514 1513 1514 1515 1515 1516 1517
1400 1402 1404 1406 1411 1414 1417 1420 1423 1426 1429 1431 1433 1434 1436 1438 1440 1443 1444 1447 1447 1447 1449 1451 1453 1455 1457 1458 1458 1458 1458 1459 1460 1463 1469 1473 1476 1480 1482 1484 1489 1496 1500 1499 1502 1507 1507 1504 1508 1514 1517 1519 1523 1525 1527 1530 1532 1530 1529 1531 1533 1531 1533 1535 1536 1537 1537 1538 1536 1537 1539 1530 1524 1524 1519 1515 1516 1513 1512 1512 1510 1509 1510 1510 1511 1511 1512 1513
1399 1402 1403 1406 1410 1413 1415 1419 1421 1425 1428 1430 1432 1433 1436 1438 1440 1443 1445 1448 1449 1447 1447 1450 1454 1454 1455 1457 1457 1457 1459 1460 1460 1462 1466 1469 1471 1476 1479 1482 1486 1492 1495 1496 1500 1505 1505 1503 1506 1512 1515 1517 1521 1524 1524 1527 1531 1531 1527 1526 1527 1528 1530 1533 1536 1539 1543 1545 1537 1538 1546 1533 1520 1521 1518 1513 1514 1511 1509 1509 1506 1505 1507 1508 1507 1507 1508 1509
1397 1401 1403 1405 1409 1411 1415 1418 1421 1424 1427 1430 1432 1433 1436 1437 1441 1444 1446 1453 1453 1447 1447 1449 1451 1452 1452 1454 1455 1458 1461 1460 1461 1463 1465 1468 1469 1469 1475 1479 1482 1486 1490 1493 1499 1502 1503 1502 1504 1509 1513 1516 1521 1522 1520 1521 1530 1532 1524 1521 1524 1526 1530 1533 1537 1541 1546 1548 1539 1537 1547 1540 1524 1519 1515 1513 1513 1510 1507 1505 1503 1503 1503 1503 1502 1503 1504 1505
1396 1399 1402 1404 1407 1410 1413 1416 1420 1423 1425 1429 1431 1433 1436 1436 1441 1443 1448 1461 1456 1442 1444 1449 1448 1447 1448 1451 1454 1459 1461 1459 1460 1463 1463 1466 1467 1467 1472 1475 1477 1482 1484 1491 1499 1497 1496 1501 1504 1507 1511 1516 1520 1519 1516 1517 1526 1529 1520 1517 1522 1525 1530 1533 1536 1541 1544 1545 1542 1538 1544 1547 1536 1520 1513 1512 1512 1508 1505 1502 1500 1499 1499 1498 1498 1498 1499 1500
1395 1398 1401 1404 1407 1410 1412 1414 1418 1420 1424 1428 1430 1434 1436 1437 1443 1443 1451 1464 1451 1435 1439 1444 1444 1446 1447 1449 1453 1457 1458 1456 1459 1461 1460 1463 1465 1465 1469 1470 1471 1476 1478 1485 1493 1490 1489 1496 1500 1502 1509 1514 1515 1514 1514 1516 1522 1523 1517 1517 1521 1524 1529 1532 1536 1542 1544 1546 1548 1542 1542 1550 1541 1520 1513 1514 1512 1506 1501 1498 1497 1494 1494 1494 1494 1495 1495 1496
1394 1398 1401 1405 1407 1410 1412 1414 1417 1419 1424 1428 1430 1434 1435 1438 1443 1445 1455 1456 1437 1430 1436 1438 1440 1445 1447 1449 1453 1457 1458 1457 1458 1458 1459 1462 1462 1463 1467 1468 1469 1474 1478 1480 1485 1487 1488 1491 1494 1499 1506 1509 1510 1511 1512 1514 1518 1518 1517 1519 1522 1526 1530 1534 1537 1541 1546 1549 1550 1544 1542 1548 1540 1519 1513 1516 1511 1504 1497 1495 1493 1490 1490 1490 1491 1492 1492 1493
1394 1398 1402 1404 1407 1410 1413 1415 1418 1421 1424 1427 1430 1434 1435 1440 1443 1451 1462 1451 1431 1431 1436 1435 1438 1440 1444 1449 1454 1458 1459 1460 1458 1457 1459 1460 1461 1463 1465 1468 1469 1474 1481 1482 1484 1487 1487 1490 1494 1497 1500 1502 1506 1509 1509 1512 1515 1515 1517 1521 1527 1530 1532 1537 1540 1542 1550 1552 1545 1540 1538 1543 1542 1522 1510 1510 1503 1496 1494 1492 1489 1487 1487 1487 1487 1489 1489 1491
1393 1398 1401 1404 1407 1410 1412 1415 1418 1421 1423 1426 1429 1432 1436 1442 1446 1452 1456 1441 1429 1434 1436 1436 1438 1436 1439 1445 1451 1457 1461 1461 1459 1457 1459 1459 1461 1463 1464 1469 1472 1478 1485 1486 1488 1490 1489 1493 1494 1493 1495 1498 1503 1508 1509 1510 1511 1513 1517 1522 1530 1537 1538 1542 1546 1547 1556 1553 1541 1537 1536 1541 1542 1521 1502 1499 1495 1491 1491 1488 1486 1485 1485 1485 1485 1486 1488 1489
1393 1397 1401 1405 1407 1410 1412 1414 1417 1420 1423 1426 1428 1431 1436 1444 1449 1446 1441 1433 1432 1435 1434 1436 1437 1434 1437 1442 1447 1454 1460 1462 1459 1457 1457 1458 1461 1462 1462 1465 1468 1478 1488 1488 1490 1494 1492 1492 1491 1491 1494 1496 1500 1508 1513 1513 1511 1513 1518 1523 1533 1546 1550 1552 1555 1555 1555 1548 1537 1536 1540 1539 1529 1510 1498 1495 1491 1489 1488 1485 1485 1484 1484 1484 1485 1486 1487 1488
1392 1397 1401 1405 1407 1409 1412 1414 1416 1419 1421 1424 1427 1430 1436 1444 1444 1436 1434 1433 1431 1432 1430 1431 1433 1433 1436 1441 1445 1451 1458 1462 1459 1457 1456 1456 1460 1461 1461 1461 1460 1465 1475 1481 1488 1495 1497 1496 1492 1492 1494 1493 1494 1503 1511 1513 1511 1511 1516 1521 1530 1545 1555 1557 1559 1556 1548 1541 1535 1535 1540 1533 1516 1502 1496 1490 1484 1484 1486 1485 1484 1484 1484 1484 1484 1485 1486 1487
1392 1396 1400 1404 1407 1409 1412 1415 1417 1419 1420 1423 1427 1431 1439 1443 1434 1428 1434 1434 1429 1430 1430 1429 1431 1434 1436 1438 1440 1445 1454 1459 1459 1458 1458 1457 1460 1461 1461 1463 1461 1461 1466 1477 1485 1487 1492 1496 1491 1488 1490 1489 1490 1494 1499 1504 1508 1509 1510 1514 1521 1530 1538 1542 1545 1544 1540 1539 1538 1538 1535 1522 1506 1496 1490 1484 1481 1483 1485 1485 1484 1483 1483 1483 1483 1484 1484 1485
1391 1396 1399 1403 1406 1409 1412 1415 1416 1419 1422 1425 1429 1433 1438 1437 1428 1427 1433 1431 1428 1430 1430 1428 1430 1434 1437 1438 1438 1440 1446 1453 1456 1458 1458 1458 1460 1460 1460 1462 1462 1462 1465 1475 1482 1480 1484 1487 1483 1482 1483 1483 1488 1491 1493 1500 1511 1512 1510 1514 1518 1517 1519 1527 1533 1532 1533 1538 1538 1535 1526 1510 1498 1490 1486 1485 1483 1482 1483 1482 1482 1482 1481 1482 1482 1482 1483 1483
1389 1395 1399 1402 1405 1408 1411 1414 1416 1419 1422 1426 1431 1436 1434 1427 1423 1425 1426 1425 1426 1428 1429 1430 1430 1433 1436 1438 1439 1440 1442 1447 1453 1457 1459 1459 1458 1456 1457 1458 1458 1459 1458 1464 1474 1476 1481 1485 1482 1481 1483 1482 1484 1488 1489 1494 1504 1510 1511 1513 1513 1511 1512 1522 1531 1531 1532 1533 1529 1524 1515 1505 1499 1490 1481 1482 1481 1479 1481 1480 1480 1480 1479 1480 1480 1480 1481 1481
1388 1393 1398 1401 1404 1407 1411 1414 1416 1419 1423 1426 1430 1432 1428 1423 1422 1423 1422 1422 1424 1425 1428 1431 1429 1431 1435 1437 1439 1440 1441 1445 1450 1454 1457 1459 1457 1453 1454 1455 1455 1456 1454 1456 1465 1467 1473 1485 1486 1481 1484 1484 1483 1487 1490 1490 1495 1504 1511 1509 1508 1513 1515 1519 1528 1533 1535 1533 1524 1519 1513 1506 1503 1492 1480 1480 1481 1478 1479 1479 1479 1479 1478 1479 1479 1479 1479 1479
1386 1392 1397 1401 1403 1406 1410 1413 1416 1419 1424 1428 1429 1427 1426 1425 1423 1422 1421 1422 1423 1425 1429 1432 1430 1428 1431 1435 1437 1437 1440 1444 1448 1451 1454 1458 1457 1451 1451 1454 1453 1455 1453 1453 1460 1461 1464 1483 1491 1483 1483 1486 1483 1488 1497 1497 1494 1497 1502 1501 1505 1515 1519 1519 1524 1528 1532 1531 1519 1515 1515 1507 1500 1489 1478 1477 1478 1476 1477 1478 1478 1477 1477 1477 1477 1478 1478 1478
1386 1392 1398 1401 1403 1406 1409 1413 1416 1419 1424 1428 1428 1426 1426 1425 1423 1422 1422 1422 1423 1425 1428 1431 1431 1430 1430 1432 1434 1435 1438 1440 1444 1448 1450 1453 1454 1450 1449 1450 1450 1453 1453 1451 1456 1457 1458 1475 1489 1486 1483 1486 1485 1488 1496 1500 1499 1498 1499 1501 1501 1506 1511 1513 1516 1518 1522 1523 1515 1512 1512 1499 1487 1481 1474 1471 1472 1472 1473 1474 1474 1474 1474 1475 1475 1476 1477 1478
1385 1391 1398 1401 1403 1406 1409 1413 1416 1420 1424 1425 1425 1425 1424 1423 1422 1421 1422 1423 1424 1425 1426 1428 1431 1433 1432 1431 1432 1434 1436 1437 1440 1444 1444 1446 1450 1450 1449 1449 1449 1450 1452 1452 1453 1455 1457 1466 1481 1487 1487 1488 1488 1485 1485 1488 1493 1495 1498 1501 1501 1503 1507 1508 1510 1511 1512 1515 1513 1511 1504 1485 1473 1473 1469 1465 1466 1466 1467 1469 1471 1471 1472 1473 1474 1474 1475 1477
1384 1390 1396 1399 1402 1405 1408 1413 1417 1420 1422 1421 1422 1424 1423 1422 1422 1421 1422 1424 1425 1425 1425 1425 1428 1431 1432 1433 1433 1433 1435 1436 1438 1441 1442 1443 1445 1446 1445 1446 1447 1448 1452 1456 1454 1454 1457 1462 1475 1486 1489 1488 1484 1479 1477 1479 1482 1484 1488 1493 1495 1499 1505 1510 1512 1509 1506 1507 1506 1508 1500 1478 1466 1466 1463 1462 1462 1463 1465 1466 1468 1470 1470 1471 1472 1473 1475 1476
1384 1389 1394 1396 1400 1402 1406 1412 1416 1418 1420 1420 1420 1422 1421 1421 1421 1421 1422 1424 1425 1425 1425 1425 1426 1427 1429 1433 1434 1435 1436 1436 1438 1439 1440 1440 1439 1439 1439 1440 1444 1446 1448 1453 1453 1451 1453 1461 1473 1483 1484 1483 1481 1479 1480 1480 1481 1483 1486 1489 1493 1496 1499 1504 1507 1504 1504 1504 1503 1508 1503 1477 1461 1462 1461 1460 1460 1460 1462 1463 1465 1467 1467 1469 1471 1473 1475 1476
1383 1388 1393 1397 1399 1401 1405 1412 1417 1419 1419 1419 1419 1421 1421 1421 1422 1422 1422 1425 1427 1427 1427 1426 1426 1426 1426 1429 1433 1436 1437 1437 1438 1437 1437 1438 1436 1435 1436 1437 1441 1445 1447 1449 1451 1451 1453 1459 1472 1483 1484 1482 1481 1480 1480 1480 1482 1487 1489 1488 1490 1492 1490 1492 1496 1497 1501 1502 1501 1510 1504 1475 1459 1461 1459 1458 1458 1458 1459 1460 1462 1465 1466 1468 1470 1471 1473 1474
1383 1389 1394 1398 1401 1402 1404 1408 1413 1417 1417 1418 1420 1422 1422 1422 1422 1422 1423 1426 1427 1427 1428 1427 1426 1426 1426 1427 1431 1434 1435 1436 1439 1439 1437 1438 1436 1435 1436 1436 1439 1444 1446 1447 1448 1450 1452 1455 1465 1480 1488 1488 1487 1486 1486 1486 1485 1484 1485 1484 1485 1485 1487 1491 1493 1495 1499 1497 1496 1504 1497 1471 1459 1460 1458 1457 1458 1458 1459 1459 1460 1462 1464 1466 1469 1470 1471 1472
1383 1390 1395 1398 1400 1401 1403 1403 1406 1412 1416 1419 1422 1423 1423 1424 1423 1423 1424 1425 1425 1426 1427 1426 1425 1426 1427 1428 1430 1433 1434 1435 1438 1440 1440 1439 1437 1435 1436 1436 1438 1440 1442 1445 1446 1447 1449 1450 1453 1463 1471 1473 1473 1472 1471 1474 1478 1478 1479 1480 1480 1481 1484 1489 1492 1496 1497 1494 1494 1495 1483 1465 1458 1459 1458 1458 1458 1458 1459 1460 1460 1461 1462 1464 1466 1468 1469 1470
1379 1388 1394 1398 1401 1401 1402 1402 1404 1409 1414 1419 1423 1424 1425 1426 1424 1424 1425 1426 1425 1425 1426 1425 1425 1427 1429 1430 1432 1435 1435 1435 1437 1440 1441 1441 1439 1437 1436 1436 1437 1437 1440 1444 1446 1448 1452 1451 1447 1446 1447 1446 1446 1447 1449 1455 1467 1475 1476 1475 1477 1480 1482 1485 1491 1491 1488 1491 1495 1485 1471 1462 1458 1459 1459 1458 1458 1458 1458 1459 1460 1460 1461 1462 1464 1465 1466 1468
1377 1383 1387 1392 1398 1402 1404 1404 1405 1408 1411 1415 1418 1420 1422 1425 1425 1425 1426 1426 1425 1426 1426 1425 1425 1427 1430 1431 1434 1435 1435 1436 1437 1438 1439 1438 1437 1437 1436 1437 1437 1437 1440 1444 1446 1450 1455 1455 1450 1446 1443 1441 1442 1445 1447 1451 1459 1464 1467 1470 1474 1478 1480 1483 1484 1478 1476 1490 1491 1472 1463 1463 1457 1456 1459 1457 1456 1457 1457 1457 1457 1457 1459 1460 1461 1463 1464 1466
1376 1380 1382 1383 1389 1395 1399 1401 1403 1405 1408 1411 1413 1414 1417 1422 1424 1426 1427 1426 1426 1426 1427 1427 1427 1427 1428 1430 1434 1436 1436 1437 1437 1436 1436 1436 1436 1437 1437 1437 1437 1436 1440 1445 1446 1449 1456 1457 1454 1452 1450 1447 1447 1447 1447 1450 1454 1455 1459 1464 1467 1470 1474 1476 1475 1467 1469 1481 1473 1454 1458 1463 1453 1452 1457 1454 1454 1456 1454 1454 1454 1454 1457 1457 1459 1461 1462 1463
1374 1378 1383 1385 1387 1390 1393 1397 1401 1404 1407 1408 1410 1412 1414 1418 1422 1423 1424 1426 1427 1426 1427 1429 1428 1427 1428 1429 1432 1435 1435 1436 1436 1434 1434 1435 1435 1436 1438 1438 1437 1436 1439 1445 1446 1447 1453 1456 1456 1457 1457 1453 1451 1449 1447 1449 1454 1457 1459 1461 1462 1465 1467 1466 1463 1460 1464 1470 1459 1448 1457 1458 1447 1448 1452 1449 1451 1453 1451 1452 1453 1453 1455 1455 1457 1458 1458 1459
1371 1374 1379 1385 1388 1390 1394 1398 1402 1406 1407 1408 1410 1411 1411 1414 1418 1419 1420 1422 1426 1426 1426 1428 1428 1427 1428 1429 1431 1432 1431 1431 1430 1429 1430 1433 1434 1433 1435 1436 1435 1437 1440 1442 1444 1446 1449 1452 1456 1459 1459 1455 1453 1452 1450 1449 1450 1453 1456 1457 1459 1463 1465 1463 1459 1457 1462 1464 1454 1452 1461 1454 1441 1443 1447 1447 1449 1451 1452 1453 1452 1451 1452 1453 1454 1454 1454 1456
1370 1372 1375 1381 1387 1391 1393 1397 1401 1404 1407 1408 1408 1409 1409 1411 1413 1415 1417 1418 1420 1422 1422 1424 1425 1426 1427 1429 1430 1429 1428 1427 1427 1425 1425 1428 1429 1429 1430 1430 1432 1437 1440 1441 1442 1445 1448 1452 1456 1459 1458 1453 1451 1453 1453 1451 1450 1452 1453 1455 1459 1460 1458 1455 1450 1447 1453 1457 1454 1460 1462 1446 1433 1438 1444 1446 1448 1449 1449 1450 1449 1449 1450 1449 1450 1450 1451 1452
1370 1373 1374 1379 1385 1389 1392 1395 1399 1403 1404 1404 1403 1404 1405 1406 1408 1412 1416 1417 1416 1418 1419 1419 1422 1425 1427 1429 1427 1424 1423 1423 1423 1423 1424 1425 1425 1426 1428 1428 1429 1433 1437 1440 1441 1441 1444 1448 1453 1456 1453 1447 1447 1451 1454 1456 1457 1454 1448 1445 1447 1446 1443 1443 1442 1441 1446 1449 1450 1452 1444 1430 1429 1437 1441 1443 1445 1446 1445 1444 1444 1445 1445 1446 1446 1447 1448 1449